| time (UTC) | temp C | wind direction | speed KPH | gust KPH | rain 1hr cm | rain 24hr cm | rain mn cm | humidity % | barometer mb |
| 20260508165014 | 20 | 68 | 3.2 | 3.2 | 0.00 | 0.00 | 0.00 | 33 | 1017.5 |
| 20260508164511 | 20 | 300 | 0.0 | 6.4 | 0.00 | 0.00 | 0.00 | 30 | 1017.5 |
| 20260508164007 | 20 | 280 | 0.0 | 4.8 | 0.00 | 0.00 | 0.00 | 33 | 1017.6 |
| 20260508163505 | 19 | 119 | 0.0 | 3.2 | 0.00 | 0.00 | 0.00 | 33 | 1017.5 |
| 20260508163001 | 18 | 224 | 0.0 | 4.8 | 0.00 | 0.00 | 0.00 | 31 | 1017.7 |
| 20260508162458 | 19 | 0 | 6.4 | 6.4 | 0.00 | 0.00 | 0.00 | 30 | 1017.6 |
| 20260508161955 | 18 | 193 | 3.2 | 3.2 | 0.00 | 0.00 | 0.00 | 30 | 1017.8 |
| 20260508161452 | 18 | 144 | 1.6 | 3.2 | 0.00 | 0.00 | 0.00 | 31 | 1017.9 |
| 20260508160949 | 18 | 167 | 1.6 | 3.2 | 0.00 | 0.00 | 0.00 | 36 | 1017.9 |
| 20260508160448 | 18 | 258 | 0.0 | 6.4 | 0.00 | 0.00 | 0.00 | 33 | 1018.2 |
| 20260508155944 | 17 | 286 | 0.0 | 4.8 | 0.00 | 0.00 | 0.00 | 35 | 1018.1 |
| 20260508155441 | 17 | 119 | 0.0 | 3.2 | 0.00 | 0.00 | 0.00 | 33 | 1018.2 |
| 20260508154938 | 17 | 237 | 3.2 | 4.8 | 0.00 | 0.00 | 0.00 | 37 | 1018.2 |
| 20260508154436 | 17 | 315 | 0.0 | 4.8 | 0.00 | 0.00 | 0.00 | 31 | 1018.4 |
| 20260508153932 | 17 | 193 | 4.8 | 4.8 | 0.00 | 0.00 | 0.00 | 31 | 1018.4 |
| 20260508153429 | 17 | 158 | 1.6 | 3.2 | 0.00 | 0.00 | 0.00 | 33 | 1018.5 |
| 20260508152925 | 17 | 0 | 0.0 | 3.2 | 0.00 | 0.00 | 0.00 | 39 | 1018.3 |
| 20260508152422 | 16 | 7 | 1.6 | 3.2 | 0.00 | 0.00 | 0.00 | 43 | 1018.6 |
| 20260508151918 | 16 | 74 | 3.2 | 3.2 | 0.00 | 0.00 | 0.00 | 48 | 1018.5 |
| 20260508151415 | 16 | 11 | 1.6 | 3.2 | 0.00 | 0.00 | 0.00 | 46 | 1018.6 |
| 20260508150912 | 16 | 269 | 0.0 | 0.0 | 0.00 | 0.00 | 0.00 | 48 | 1018.5 |
| 20260508150408 | 16 | 212 | 1.6 | 3.2 | 0.00 | 0.00 | 0.00 | 46 | 1018.6 |
| 20260508145904 | 15 | 2 | 1.6 | 3.2 | 0.00 | 0.00 | 0.00 | 38 | 1018.5 |
| 20260508145401 | 15 | 89 | 0.0 | 4.8 | 0.00 | 0.00 | 0.00 | 44 | 1018.7 |
| 20260508144858 | 15 | 221 | 0.0 | 3.2 | 0.00 | 0.00 | 0.00 | 46 | 1018.6 |
| 20260508144356 | 15 | 106 | 0.0 | 3.2 | 0.00 | 0.00 | 0.00 | 53 | 1018.5 |
| 20260508143853 | 15 | 213 | 0.0 | 1.6 | 0.00 | 0.00 | 0.00 | 54 | 1018.7 |
| 20260508143350 | 15 | 123 | 0.0 | 3.2 | 0.00 | 0.00 | 0.00 | 51 | 1018.7 |
| 20260508142847 | 15 | 206 | 1.6 | 3.2 | 0.00 | 0.00 | 0.00 | 54 | 1018.6 |
| 20260508142344 | 15 | 15 | 0.0 | 3.2 | 0.00 | 0.00 | 0.00 | 52 | 1018.6 |
| 20260508141840 | 14 | 2 | 0.0 | 3.2 | 0.00 | 0.00 | 0.00 | 52 | 1018.6 |
| 20260508141337 | 14 | 2 | 3.2 | 3.2 | 0.00 | 0.00 | 0.00 | 51 | 1018.7 |
| 20260508140834 | 13 | 132 | 1.6 | 3.2 | 0.00 | 0.00 | 0.00 | 52 | 1018.7 |
| 20260508140331 | 13 | 132 | 0.0 | 3.2 | 0.00 | 0.00 | 0.00 | 53 | 1018.4 |
| 20260508135827 | 13 | 320 | 3.2 | 4.8 | 0.00 | 0.00 | 0.00 | 54 | 1018.6 |
| 20260508135324 | 13 | 86 | 1.6 | 3.2 | 0.00 | 0.00 | 0.00 | 62 | 1018.6 |
| 20260508134820 | 12 | 217 | 0.0 | 3.2 | 0.00 | 0.00 | 0.00 | 58 | 1018.6 |
| 20260508134317 | 12 | 58 | 0.0 | 3.2 | 0.00 | 0.00 | 0.00 | 64 | 1018.6 |
| 20260508133813 | 12 | 269 | 0.0 | 1.6 | 0.00 | 0.00 | 0.00 | 64 | 1018.5 |
| 20260508133311 | 12 | 207 | 0.0 | 1.6 | 0.00 | 0.00 | 0.00 | 68 | 1018.6 |
| 20260508132808 | 11 | 31 | 0.0 | 1.6 | 0.00 | 0.00 | 0.00 | 70 | 1018.4 |
| 20260508132306 | 11 | 64 | 0.0 | 0.0 | 0.00 | 0.00 | 0.00 | 70 | 1018.5 |
| 20260508131801 | 11 | 355 | 0.0 | 3.2 | 0.00 | 0.00 | 0.00 | 70 | 1018.6 |
| 20260508131258 | 11 | 304 | 3.2 | 3.2 | 0.00 | 0.00 | 0.00 | 71 | 1018.5 |
| 20260508130754 | 10 | 229 | 0.0 | 0.0 | 0.00 | 0.00 | 0.00 | 74 | 1018.6 |
| 20260508130252 | 10 | 289 | 0.0 | 0.0 | 0.00 | 0.00 | 0.00 | 77 | 1018.7 |
| 20260508125747 | 10 | 322 | 0.0 | 0.0 | 0.00 | 0.00 | 0.00 | 79 | 1018.3 |
| 20260508125244 | 10 | 322 | 0.0 | 0.0 | 0.00 | 0.00 | 0.00 | 79 | 1018.6 |
| 20260508124742 | 9 | 241 | 0.0 | 1.6 | 0.00 | 0.00 | 0.00 | 81 | 1018.5 |
| 20260508124239 | 9 | 299 | 0.0 | 1.6 | 0.00 | 0.00 | 0.00 | 83 | 1018.5 |
| 20260508123737 | 8 | 89 | 0.0 | 0.0 | 0.00 | 0.00 | 0.00 | 82 | 1018.3 |
| 20260508123235 | 8 | 83 | 1.6 | 3.2 | 0.00 | 0.00 | 0.00 | 84 | 1018.4 |
| 20260508122731 | 8 | 64 | 0.0 | 1.6 | 0.00 | 0.00 | 0.00 | 90 | 1018.2 |
| 20260508122228 | 7 | 21 | 0.0 | 0.0 | 0.00 | 0.00 | 0.00 | 92 | 1018.1 |
| 20260508121725 | 7 | 315 | 0.0 | 0.0 | 0.00 | 0.00 | 0.00 | 93 | 1018.1 |
| 20260508121224 | 7 | 327 | 0.0 | 1.6 | 0.00 | 0.00 | 0.00 | 93 | 1018.1 |
| 20260508120720 | 7 | 350 | 3.2 | 3.2 | 0.00 | 0.00 | 0.00 | 93 | 1018.2 |
| 20260508120219 | 7 | 43 | 1.6 | 3.2 | 0.00 | 0.00 | 0.00 | 93 | 1018.2 |
| 20260508115716 | 7 | 6 | 0.0 | 0.0 | 0.00 | 0.00 | 0.00 | 92 | 1018.1 |
| 20260508115213 | 6 | 6 | 0.0 | 0.0 | 0.00 | 0.00 | 0.00 | 92 | 1018.0 |
| 20260508114710 | 6 | 359 | 0.0 | 0.0 | 0.00 | 0.00 | 0.00 | 93 | 1017.9 |
| 20260508114207 | 6 | 300 | 0.0 | 3.2 | 0.00 | 0.00 | 0.00 | 94 | 1017.9 |
| 20260508113703 | 6 | 330 | 1.6 | 3.2 | 0.00 | 0.00 | 0.00 | 94 | 1017.7 |
| 20260508113202 | 6 | 334 | 1.6 | 1.6 | 0.00 | 0.00 | 0.00 | 94 | 1017.5 |
| 20260508112657 | 6 | 314 | 1.6 | 3.2 | 0.00 | 0.00 | 0.00 | 94 | 1017.4 |
| 20260508112155 | 6 | 287 | 0.0 | 3.2 | 0.00 | 0.00 | 0.00 | 94 | 1017.3 |
| 20260508111651 | 6 | 33 | 0.0 | 1.6 | 0.00 | 0.00 | 0.00 | 94 | 1017.5 |
| 20260508111149 | 6 | 337 | 3.2 | 3.2 | 0.00 | 0.00 | 0.00 | 93 | 1017.3 |
| 20260508110646 | 6 | 335 | 3.2 | 3.2 | 0.00 | 0.00 | 0.00 | 93 | 1017.4 |
| 20260508110142 | 6 | 347 | 3.2 | 3.2 | 0.00 | 0.00 | 0.00 | 93 | 1017.4 |
| 20260508105637 | 6 | 310 | 3.2 | 3.2 | 0.00 | 0.00 | 0.00 | 92 | 1017.2 |
| 20260508105134 | 6 | 211 | 0.0 | 1.6 | 0.00 | 0.00 | 0.00 | 92 | 1017.2 |
| 20260508104632 | 6 | 216 | 0.0 | 1.6 | 0.00 | 0.00 | 0.00 | 92 | 1017.0 |
| 20260508104128 | 6 | 20 | 0.0 | 1.6 | 0.00 | 0.00 | 0.00 | 93 | 1016.7 |
| 20260508103626 | 6 | 287 | 1.6 | 3.2 | 0.00 | 0.00 | 0.00 | 93 | 1016.6 |
| 20260508103123 | 6 | 31 | 1.6 | 1.6 | 0.00 | 0.00 | 0.00 | 92 | 1016.4 |
| 20260508102620 | 6 | 0 | 1.6 | 3.2 | 0.00 | 0.00 | 0.00 | 92 | 1016.4 |
| 20260508102118 | 6 | 324 | 0.0 | 3.2 | 0.00 | 0.00 | 0.00 | 91 | 1016.3 |
| 20260508101615 | 6 | 321 | 3.2 | 3.2 | 0.00 | 0.00 | 0.00 | 91 | 1016.3 |
| 20260508101112 | 6 | 321 | 1.6 | 3.2 | 0.00 | 0.00 | 0.00 | 90 | 1016.2 |
| 20260508100610 | 6 | 302 | 3.2 | 3.2 | 0.00 | 0.00 | 0.00 | 90 | 1016.3 |
| 20260508100107 | 6 | 2 | 0.0 | 3.2 | 0.00 | 0.00 | 0.00 | 90 | 1016.3 |
| 20260508095604 | 6 | 342 | 0.0 | 1.6 | 0.00 | 0.00 | 0.00 | 90 | 1016.2 |
| 20260508095101 | 7 | 2 | 0.0 | 3.2 | 0.00 | 0.00 | 0.00 | 90 | 1016.0 |
| 20260508094558 | 7 | 347 | 3.2 | 3.2 | 0.00 | 0.00 | 0.00 | 91 | 1016.1 |
| 20260508094055 | 7 | 47 | 0.0 | 3.2 | 0.00 | 0.00 | 0.00 | 91 | 1015.9 |
| 20260508093552 | 7 | 18 | 0.0 | 3.2 | 0.00 | 0.00 | 0.00 | 91 | 1015.9 |
| 20260508093050 | 7 | 298 | 1.6 | 3.2 | 0.00 | 0.00 | 0.00 | 90 | 1016.0 |
| 20260508092547 | 7 | 348 | 0.0 | 1.6 | 0.00 | 0.00 | 0.00 | 90 | 1016.0 |
| 20260508092046 | 7 | 43 | 0.0 | 3.2 | 0.00 | 0.00 | 0.00 | 89 | 1015.9 |
| 20260508091542 | 7 | 292 | 1.6 | 1.6 | 0.00 | 0.00 | 0.00 | 88 | 1015.6 |
| 20260508091039 | 7 | 51 | 0.0 | 0.0 | 0.00 | 0.00 | 0.00 | 88 | 1015.7 |
| 20260508090537 | 8 | 323 | 0.0 | 1.6 | 0.00 | 0.00 | 0.00 | 87 | 1015.7 |
| 20260508090033 | 8 | 73 | 0.0 | 1.6 | 0.00 | 0.00 | 0.00 | 86 | 1015.8 |
| 20260508085530 | 8 | 26 | 0.0 | 3.2 | 0.00 | 0.00 | 0.00 | 85 | 1015.7 |
| 20260508085027 | 9 | 341 | 3.2 | 3.2 | 0.00 | 0.00 | 0.00 | 80 | 1015.4 |
| 20260508084524 | 9 | 341 | 3.2 | 4.8 | 0.00 | 0.00 | 0.00 | 77 | 1015.6 |
| 20260508084021 | 8 | 335 | 4.8 | 4.8 | 0.00 | 0.00 | 0.00 | 77 | 1015.7 |
| 20260508083519 | 8 | 342 | 3.2 | 4.8 | 0.00 | 0.00 | 0.00 | 80 | 1015.7 |
| 20260508083015 | 8 | 350 | 3.2 | 3.2 | 0.00 | 0.00 | 0.00 | 81 | 1015.6 |
| 20260508082511 | 8 | 342 | 3.2 | 3.2 | 0.00 | 0.00 | 0.00 | 87 | 1015.5 |
| 20260508082009 | 7 | 355 | 3.2 | 3.2 | 0.00 | 0.00 | 0.00 | 91 | 1015.7 |
| 20260508081506 | 7 | 335 | 3.2 | 4.8 | 0.00 | 0.00 | 0.00 | 92 | 1015.5 |
| 20260508081001 | 7 | 358 | 0.0 | 3.2 | 0.00 | 0.00 | 0.00 | 92 | 1015.7 |
| 20260508080500 | 8 | 10 | 1.6 | 3.2 | 0.00 | 0.00 | 0.00 | 91 | 1015.5 |
| 20260508075956 | 8 | 307 | 0.0 | 1.6 | 0.00 | 0.00 | 0.00 | 91 | 1015.5 |
| 20260508075453 | 8 | 40 | 1.6 | 3.2 | 0.00 | 0.00 | 0.00 | 90 | 1015.6 |
| 20260508074951 | 8 | 2 | 0.0 | 1.6 | 0.00 | 0.00 | 0.00 | 90 | 1015.5 |
| 20260508074449 | 8 | 28 | 0.0 | 1.6 | 0.00 | 0.00 | 0.00 | 89 | 1015.4 |
| 20260508073945 | 8 | 343 | 0.0 | 1.6 | 0.00 | 0.00 | 0.00 | 89 | 1015.2 |
| 20260508073443 | 8 | 11 | 0.0 | 1.6 | 0.00 | 0.00 | 0.00 | 89 | 1015.3 |
| 20260508072939 | 8 | 2 | 0.0 | 1.6 | 0.00 | 0.00 | 0.00 | 89 | 1015.3 |
| 20260508072436 | 8 | 16 | 0.0 | 1.6 | 0.00 | 0.00 | 0.00 | 89 | 1015.2 |
| 20260508071933 | 8 | 16 | 0.0 | 1.6 | 0.00 | 0.00 | 0.00 | 87 | 1015.3 |
| 20260508071431 | 8 | 21 | 0.0 | 1.6 | 0.00 | 0.00 | 0.00 | 89 | 1015.3 |
| 20260508070928 | 8 | 333 | 0.0 | 3.2 | 0.00 | 0.00 | 0.00 | 89 | 1015.2 |
| 20260508070426 | 8 | 2 | 3.2 | 4.8 | 0.00 | 0.00 | 0.00 | 88 | 1015.2 |
| 20260508065924 | 8 | 29 | 0.0 | 3.2 | 0.00 | 0.00 | 0.00 | 88 | 1015.1 |
| 20260508065422 | 8 | 14 | 3.2 | 3.2 | 0.00 | 0.00 | 0.00 | 87 | 1015.3 |
| 20260508064920 | 8 | 339 | 3.2 | 3.2 | 0.00 | 0.00 | 0.00 | 88 | 1015.1 |
| 20260508064417 | 8 | 350 | 1.6 | 3.2 | 0.00 | 0.00 | 0.00 | 88 | 1015.1 |
| 20260508063914 | 9 | 30 | 0.0 | 3.2 | 0.00 | 0.00 | 0.00 | 88 | 1015.1 |
| 20260508063412 | 9 | 356 | 0.0 | 1.6 | 0.00 | 0.00 | 0.00 | 87 | 1015.1 |
| 20260508062908 | 9 | 315 | 0.0 | 3.2 | 0.00 | 0.00 | 0.00 | 88 | 1015.1 |
| 20260508062401 | 9 | 5 | 1.6 | 1.6 | 0.00 | 0.00 | 0.00 | 87 | 1015.2 |
| 20260508061858 | 9 | 338 | 1.6 | 3.2 | 0.00 | 0.00 | 0.00 | 87 | 1014.9 |
| 20260508061355 | 9 | 33 | 1.6 | 3.2 | 0.00 | 0.00 | 0.00 | 86 | 1015.0 |
| 20260508060851 | 9 | 357 | 1.6 | 3.2 | 0.00 | 0.00 | 0.00 | 87 | 1014.8 |
| 20260508060350 | 9 | 358 | 3.2 | 3.2 | 0.00 | 0.00 | 0.00 | 88 | 1014.8 |
| 20260508055849 | 9 | 10 | 1.6 | 3.2 | 0.00 | 0.00 | 0.00 | 89 | 1015.2 |
| 20260508055347 | 9 | 16 | 0.0 | 3.2 | 0.00 | 0.00 | 0.00 | 88 | 1015.2 |
| 20260508054843 | 9 | 327 | 4.8 | 4.8 | 0.00 | 0.00 | 0.00 | 87 | 1014.9 |
| 20260508054341 | 9 | 45 | 0.0 | 3.2 | 0.00 | 0.00 | 0.00 | 88 | 1015.0 |
| 20260508053838 | 9 | 40 | 0.0 | 0.0 | 0.00 | 0.00 | 0.00 | 87 | 1015.0 |
| 20260508053335 | 10 | 1 | 0.0 | 3.2 | 0.00 | 0.00 | 0.00 | 86 | 1015.2 |
| 20260508052832 | 10 | 327 | 0.0 | 1.6 | 0.00 | 0.00 | 0.00 | 87 | 1014.8 |
| 20260508052330 | 10 | 337 | 0.0 | 3.2 | 0.00 | 0.00 | 0.00 | 85 | 1014.9 |
| 20260508051826 | 10 | 31 | 0.0 | 3.2 | 0.00 | 0.00 | 0.00 | 85 | 1014.9 |
| 20260508051321 | 10 | 58 | 1.6 | 3.2 | 0.00 | 0.00 | 0.00 | 84 | 1014.8 |
| 20260508050818 | 10 | 328 | 3.2 | 3.2 | 0.00 | 0.00 | 0.00 | 83 | 1014.9 |
| 20260508050315 | 10 | 322 | 1.6 | 1.6 | 0.00 | 0.00 | 0.00 | 82 | 1014.9 |
| 20260508045811 | 10 | 292 | 1.6 | 3.2 | 0.00 | 0.00 | 0.00 | 82 | 1014.7 |
| 20260508045309 | 11 | 319 | 0.0 | 0.0 | 0.00 | 0.00 | 0.00 | 82 | 1014.6 |
| 20260508044806 | 11 | 38 | 0.0 | 3.2 | 0.00 | 0.00 | 0.00 | 79 | 1014.6 |
| 20260508044303 | 11 | 55 | 3.2 | 3.2 | 0.00 | 0.00 | 0.00 | 80 | 1014.5 |
| 20260508043759 | 11 | 2 | 0.0 | 4.8 | 0.00 | 0.00 | 0.00 | 79 | 1014.4 |
| 20260508043256 | 11 | 97 | 0.0 | 3.2 | 0.00 | 0.00 | 0.00 | 77 | 1014.6 |
| 20260508042752 | 12 | 198 | 1.6 | 3.2 | 0.00 | 0.00 | 0.00 | 76 | 1014.5 |
| 20260508042250 | 12 | 233 | 1.6 | 3.2 | 0.00 | 0.00 | 0.00 | 76 | 1014.4 |
| 20260508041747 | 12 | 182 | 0.0 | 1.6 | 0.00 | 0.00 | 0.00 | 73 | 1014.5 |
| 20260508041243 | 12 | 42 | 3.2 | 4.8 | 0.00 | 0.00 | 0.00 | 72 | 1014.2 |
| 20260508040740 | 12 | 28 | 0.0 | 3.2 | 0.00 | 0.00 | 0.00 | 72 | 1014.5 |
| 20260508040237 | 12 | 17 | 3.2 | 3.2 | 0.00 | 0.00 | 0.00 | 74 | 1014.2 |
| 20260508035734 | 12 | 358 | 6.4 | 6.4 | 0.00 | 0.33 | 0.33 | 72 | 1014.4 |
| 20260508035232 | 11 | 341 | 3.2 | 4.8 | 0.00 | 0.33 | 0.33 | 73 | 1014.5 |
| 20260508034728 | 11 | 314 | 3.2 | 6.4 | 0.00 | 0.33 | 0.33 | 74 | 1014.1 |
| 20260508034226 | 11 | 280 | 3.2 | 4.8 | 0.00 | 0.33 | 0.33 | 74 | 1014.2 |
| 20260508033722 | 11 | 256 | 0.0 | 1.6 | 0.00 | 0.33 | 0.33 | 78 | 1014.4 |
| 20260508033221 | 11 | 25 | 3.2 | 3.2 | 0.00 | 0.33 | 0.33 | 77 | 1014.6 |
| 20260508032718 | 11 | 277 | 0.0 | 4.8 | 0.00 | 0.33 | 0.33 | 77 | 1014.5 |
| 20260508032215 | 11 | 30 | 0.0 | 3.2 | 0.00 | 0.33 | 0.33 | 77 | 1014.0 |
| 20260508031712 | 11 | 356 | 1.6 | 3.2 | 0.00 | 0.33 | 0.33 | 76 | 1014.5 |
| 20260508031203 | 11 | 60 | 0.0 | 1.6 | 0.00 | 0.33 | 0.33 | 74 | 1014.5 |
| 20260508030659 | 12 | 6 | 0.0 | 3.2 | 0.00 | 0.33 | 0.33 | 74 | 1014.4 |
| 20260508030157 | 12 | 15 | 0.0 | 1.6 | 0.00 | 0.33 | 0.33 | 74 | 1014.2 |
| 20260508025653 | 12 | 6 | 0.0 | 1.6 | 0.00 | 0.33 | 0.33 | 74 | 1014.1 |
| 20260508025150 | 12 | 344 | 3.2 | 6.4 | 0.00 | 0.33 | 0.33 | 68 | 1013.9 |
| 20260508024646 | 12 | 321 | 3.2 | 4.8 | 0.00 | 0.33 | 0.33 | 68 | 1013.8 |
| 20260508024144 | 13 | 357 | 3.2 | 8.0 | 0.00 | 0.33 | 0.33 | 66 | 1013.8 |
| 20260508023639 | 13 | 316 | 3.2 | 6.4 | 0.00 | 0.33 | 0.33 | 66 | 1013.7 |
| 20260508023137 | 13 | 333 | 6.4 | 9.7 | 0.00 | 0.33 | 0.33 | 66 | 1013.6 |
| 20260508022633 | 13 | 342 | 4.8 | 8.0 | 0.00 | 0.33 | 0.33 | 66 | 1013.7 |
| 20260508022130 | 12 | 332 | 4.8 | 6.4 | 0.00 | 0.33 | 0.33 | 68 | 1013.6 |
| 20260508021626 | 12 | 311 | 6.4 | 6.4 | 0.00 | 0.33 | 0.33 | 71 | 1013.7 |
| 20260508021122 | 12 | 5 | 1.6 | 4.8 | 0.00 | 0.33 | 0.33 | 68 | 1013.6 |
| 20260508020620 | 12 | 343 | 3.2 | 4.8 | 0.00 | 0.33 | 0.33 | 69 | 1013.5 |
| 20260508020117 | 12 | 348 | 4.8 | 4.8 | 0.00 | 0.33 | 0.33 | 70 | 1013.3 |
| 20260508015614 | 12 | 315 | 3.2 | 6.4 | 0.00 | 0.33 | 0.33 | 67 | 1013.4 |
| 20260508015111 | 12 | 337 | 1.6 | 4.8 | 0.00 | 0.33 | 0.33 | 68 | 1013.3 |
| 20260508014607 | 12 | 310 | 8.0 | 8.0 | 0.00 | 0.33 | 0.33 | 69 | 1013.3 |
| 20260508014104 | 12 | 305 | 4.8 | 8.0 | 0.00 | 0.33 | 0.33 | 69 | 1013.2 |
| 20260508013600 | 12 | 332 | 9.7 | 9.7 | 0.00 | 0.33 | 0.33 | 71 | 1013.1 |
| 20260508013057 | 12 | 322 | 6.4 | 8.0 | 0.00 | 0.33 | 0.33 | 72 | 1012.8 |
| 20260508012555 | 12 | 314 | 4.8 | 4.8 | 0.00 | 0.33 | 0.33 | 74 | 1012.9 |
| 20260508012052 | 12 | 321 | 3.2 | 6.4 | 0.00 | 0.33 | 0.33 | 74 | 1012.8 |
| 20260508011550 | 12 | 318 | 6.4 | 8.0 | 0.00 | 0.33 | 0.33 | 74 | 1012.7 |
| 20260508011047 | 12 | 332 | 1.6 | 4.8 | 0.00 | 0.33 | 0.33 | 72 | 1012.7 |
| 20260508010544 | 12 | 333 | 3.2 | 6.4 | 0.00 | 0.33 | 0.33 | 71 | 1012.5 |
| 20260508010042 | 13 | 333 | 3.2 | 6.4 | 0.00 | 0.33 | 0.33 | 70 | 1012.5 |
| 20260508005537 | 13 | 335 | 3.2 | 4.8 | 0.00 | 0.33 | 0.33 | 69 | 1012.5 |
| 20260508005034 | 13 | 311 | 4.8 | 6.4 | 0.00 | 0.33 | 0.33 | 66 | 1012.4 |
| 20260508004530 | 13 | 250 | 1.6 | 4.8 | 0.00 | 0.33 | 0.33 | 63 | 1012.5 |
| 20260508004027 | 13 | 324 | 6.4 | 11.3 | 0.00 | 0.33 | 0.33 | 61 | 1012.4 |
| 20260508003523 | 14 | 292 | 3.2 | 3.2 | 0.00 | 0.33 | 0.33 | 65 | 1012.2 |
| 20260508003021 | 14 | 311 | 4.8 | 4.8 | 0.00 | 0.33 | 0.33 | 60 | 1012.2 |
| 20260508002517 | 14 | 338 | 3.2 | 4.8 | 0.00 | 0.33 | 0.33 | 59 | 1012.5 |
| 20260508002015 | 14 | 308 | 3.2 | 8.0 | 0.00 | 0.33 | 0.33 | 60 | 1012.4 |
| 20260508001510 | 14 | 319 | 6.4 | 8.0 | 0.00 | 0.33 | 0.33 | 60 | 1012.4 |
| 20260508001006 | 15 | 328 | 4.8 | 6.4 | 0.00 | 0.33 | 0.33 | 59 | 1012.3 |
| 20260508000502 | 15 | 313 | 12.9 | 14.5 | 0.00 | 0.33 | 0.33 | 59 | 1012.3 |
| 20260508000001 | 15 | 344 | 1.6 | 3.2 | 0.00 | 0.33 | 0.33 | 59 | 1012.3 |
| 20260507235456 | 15 | 301 | 9.7 | 16.1 | 0.00 | 0.33 | 0.33 | 58 | 1012.1 |
| 20260507234954 | 15 | 13 | 4.8 | 4.8 | 0.00 | 0.33 | 0.33 | 59 | 1012.3 |
| 20260507234451 | 15 | 252 | 3.2 | 12.9 | 0.00 | 0.33 | 0.33 | 58 | 1012.2 |
| 20260507233949 | 15 | 310 | 16.1 | 16.1 | 0.00 | 0.33 | 0.33 | 58 | 1012.2 |
| 20260507233444 | 15 | 297 | 19.3 | 22.5 | 0.00 | 0.33 | 0.33 | 58 | 1012.1 |
| 20260507232943 | 15 | 0 | 4.8 | 6.4 | 0.00 | 0.33 | 0.33 | 59 | 1012.1 |
| 20260507232438 | 15 | 85 | 0.0 | 8.0 | 0.00 | 0.33 | 0.33 | 61 | 1011.9 |
| 20260507231936 | 16 | 349 | 6.4 | 6.4 | 0.00 | 0.33 | 0.33 | 61 | 1012.0 |
| 20260507231431 | 16 | 268 | 4.8 | 20.9 | 0.00 | 0.33 | 0.33 | 59 | 1012.0 |
| 20260507230928 | 16 | 300 | 6.4 | 14.5 | 0.00 | 0.33 | 0.33 | 60 | 1012.0 |
| 20260507230426 | 16 | 356 | 6.4 | 9.7 | 0.00 | 0.33 | 0.33 | 59 | 1011.7 |
| 20260507225926 | 16 | 310 | 8.0 | 8.0 | 0.00 | 0.33 | 0.33 | 59 | 1011.9 |
| 20260507225422 | 17 | 338 | 6.4 | 11.3 | 0.00 | 0.33 | 0.33 | 58 | 1011.7 |
| 20260507224919 | 17 | 7 | 3.2 | 8.0 | 0.00 | 0.33 | 0.33 | 59 | 1011.7 |
| 20260507224414 | 17 | 329 | 1.6 | 9.7 | 0.00 | 0.33 | 0.33 | 58 | 1011.5 |
| 20260507223911 | 17 | 325 | 4.8 | 4.8 | 0.00 | 0.33 | 0.33 | 59 | 1011.4 |
| 20260507223407 | 17 | 295 | 3.2 | 9.7 | 0.00 | 0.33 | 0.33 | 59 | 1011.2 |
| 20260507222905 | 17 | 75 | 3.2 | 8.0 | 0.00 | 0.33 | 0.33 | 58 | 1010.8 |
| 20260507222401 | 17 | 320 | 4.8 | 8.0 | 0.00 | 0.33 | 0.33 | 59 | 1010.7 |
| 20260507221858 | 17 | 310 | 9.7 | 11.3 | 0.00 | 0.33 | 0.33 | 58 | 1010.7 |
| 20260507221355 | 18 | 330 | 6.4 | 8.0 | 0.00 | 0.33 | 0.33 | 59 | 1010.7 |
| 20260507220851 | 18 | 336 | 8.0 | 9.7 | 0.00 | 0.33 | 0.33 | 57 | 1010.4 |
| 20260507220349 | 18 | 324 | 11.3 | 17.7 | 0.00 | 0.33 | 0.33 | 56 | 1010.6 |
| 20260507215845 | 19 | 317 | 9.7 | 9.7 | 0.00 | 0.33 | 0.33 | 56 | 1010.5 |
| 20260507215343 | 20 | 18 | 6.4 | 9.7 | 0.00 | 0.33 | 0.33 | 56 | 1010.4 |
| 20260507214840 | 20 | 352 | 6.4 | 12.9 | 0.00 | 0.33 | 0.33 | 55 | 1010.1 |
| 20260507214338 | 20 | 38 | 0.0 | 4.8 | 0.00 | 0.33 | 0.33 | 56 | 1010.0 |
| 20260507213837 | 20 | 337 | 3.2 | 9.7 | 0.00 | 0.33 | 0.33 | 55 | 1010.0 |
| 20260507213335 | 20 | 345 | 6.4 | 8.0 | 0.00 | 0.33 | 0.33 | 54 | 1009.7 |
| 20260507212831 | 20 | 326 | 9.7 | 14.5 | 0.00 | 0.33 | 0.33 | 53 | 1009.7 |
| 20260507212327 | 21 | 18 | 11.3 | 11.3 | 0.00 | 0.33 | 0.33 | 54 | 1009.6 |
| 20260507211824 | 21 | 114 | 1.6 | 11.3 | 0.00 | 0.33 | 0.33 | 52 | 1009.5 |
| 20260507211321 | 21 | 22 | 3.2 | 8.0 | 0.00 | 0.33 | 0.33 | 53 | 1009.3 |
| 20260507210818 | 21 | 315 | 11.3 | 16.1 | 0.00 | 0.33 | 0.33 | 51 | 1009.2 |
| 20260507210315 | 21 | 297 | 3.2 | 6.4 | 0.00 | 0.33 | 0.33 | 52 | 1009.3 |
| 20260507205811 | 21 | 354 | 4.8 | 6.4 | 0.00 | 0.33 | 0.33 | 52 | 1009.1 |
| 20260507205308 | 21 | 326 | 8.0 | 12.9 | 0.00 | 0.33 | 0.33 | 52 | 1009.1 |
| 20260507204804 | 21 | 321 | 11.3 | 17.7 | 0.00 | 0.33 | 0.33 | 52 | 1009.1 |
| 20260507204302 | 22 | 239 | 1.6 | 14.5 | 0.00 | 0.33 | 0.33 | 51 | 1009.1 |
| 20260507203759 | 22 | 268 | 1.6 | 11.3 | 0.00 | 0.33 | 0.33 | 53 | 1008.9 |
| 20260507203257 | 22 | 342 | 9.7 | 16.1 | 0.00 | 0.33 | 0.33 | 51 | 1008.8 |
| 20260507202753 | 22 | 61 | 3.2 | 29.0 | 0.00 | 0.33 | 0.33 | 52 | 1008.8 |
| 20260507202249 | 22 | 223 | 8.0 | 19.3 | 0.00 | 0.33 | 0.33 | 51 | 1008.8 |
| 20260507201744 | 22 | 321 | 12.9 | 17.7 | 0.00 | 0.33 | 0.33 | 52 | 1008.6 |
| 20260507201241 | 22 | 71 | 8.0 | 20.9 | 0.00 | 0.33 | 0.33 | 52 | 1008.6 |
| 20260507200737 | 22 | 358 | 6.4 | 20.9 | 0.00 | 0.33 | 0.33 | 52 | 1008.8 |
| 20260507200233 | 23 | 171 | 3.2 | 8.0 | 0.00 | 0.33 | 0.33 | 53 | 1008.7 |
| 20260507195730 | 22 | 339 | 8.0 | 11.3 | 0.00 | 0.33 | 0.33 | 52 | 1008.5 |
| 20260507195227 | 23 | 300 | 4.8 | 22.5 | 0.00 | 0.33 | 0.33 | 51 | 1008.7 |
| 20260507194724 | 23 | 262 | 1.6 | 12.9 | 0.00 | 0.33 | 0.33 | 51 | 1008.5 |
| 20260507194220 | 24 | 308 | 4.8 | 11.3 | 0.00 | 0.33 | 0.33 | 50 | 1008.5 |
| 20260507193717 | 24 | 356 | 3.2 | 8.0 | 0.00 | 0.33 | 0.33 | 51 | 1008.4 |
| 20260507193214 | 23 | 334 | 1.6 | 8.0 | 0.00 | 0.33 | 0.33 | 52 | 1008.4 |
| 20260507192710 | 25 | 330 | 14.5 | 19.3 | 0.00 | 0.33 | 0.33 | 50 | 1008.3 |
| 20260507192207 | 24 | 297 | 1.6 | 3.2 | 0.00 | 0.33 | 0.33 | 53 | 1008.4 |
| 20260507191702 | 24 | 192 | 3.2 | 9.7 | 0.00 | 0.33 | 0.33 | 52 | 1008.5 |
| 20260507191200 | 24 | 338 | 4.8 | 11.3 | 0.00 | 0.33 | 0.33 | 52 | 1008.5 |
| 20260507190657 | 23 | 21 | 3.2 | 11.3 | 0.00 | 0.33 | 0.33 | 55 | 1008.6 |
| 20260507190155 | 23 | 4 | 3.2 | 4.8 | 0.00 | 0.33 | 0.33 | 56 | 1008.4 |
| 20260507185653 | 23 | 341 | 3.2 | 9.7 | 0.00 | 0.33 | 0.33 | 56 | 1008.7 |
| 20260507185149 | 23 | 305 | 6.4 | 17.7 | 0.00 | 0.33 | 0.33 | 55 | 1008.6 |
| 20260507184647 | 23 | 326 | 3.2 | 6.4 | 0.00 | 0.33 | 0.33 | 57 | 1008.7 |
| 20260507184145 | 22 | 351 | 3.2 | 6.4 | 0.00 | 0.33 | 0.33 | 64 | 1008.8 |
| 20260507183641 | 22 | 349 | 3.2 | 8.0 | 0.00 | 0.33 | 0.33 | 63 | 1008.8 |
| 20260507183139 | 22 | 351 | 4.8 | 8.0 | 0.00 | 0.33 | 0.33 | 63 | 1009.0 |
| 20260507182635 | 23 | 341 | 3.2 | 3.2 | 0.00 | 0.33 | 0.33 | 65 | 1008.8 |
| 20260507182131 | 22 | 328 | 0.0 | 4.8 | 0.00 | 0.33 | 0.33 | 67 | 1009.0 |
| 20260507181628 | 23 | 332 | 9.7 | 9.7 | 0.00 | 0.33 | 0.33 | 71 | 1008.8 |
| 20260507181124 | 23 | 321 | 3.2 | 3.2 | 0.00 | 0.33 | 0.33 | 70 | 1008.9 |
| 20260507180620 | 23 | 346 | 3.2 | 6.4 | 0.00 | 0.33 | 0.33 | 71 | 1008.8 |
| 20260507180118 | 23 | 258 | 0.0 | 0.0 | 0.00 | 0.33 | 0.33 | 75 | 1008.8 |
| 20260507175613 | 22 | 69 | 1.6 | 4.8 | 0.00 | 0.33 | 0.33 | 73 | 1008.8 |
| 20260507175111 | 22 | 313 | 0.0 | 1.6 | 0.00 | 0.33 | 0.33 | 74 | 1008.8 |
| 20260507174608 | 22 | 340 | 1.6 | 3.2 | 0.00 | 0.33 | 0.33 | 77 | 1008.9 |
| 20260507174106 | 22 | 21 | 0.0 | 1.6 | 0.00 | 0.33 | 0.33 | 73 | 1008.7 |
| 20260507173603 | 22 | 318 | 1.6 | 3.2 | 0.00 | 0.33 | 0.33 | 72 | 1008.8 |
| 20260507173100 | 22 | 9 | 0.0 | 3.2 | 0.00 | 0.33 | 0.33 | 70 | 1008.8 |
| 20260507172555 | 22 | 284 | 3.2 | 4.8 | 0.00 | 0.33 | 0.33 | 70 | 1008.6 |
| 20260507172053 | 23 | 277 | 0.0 | 3.2 | 0.00 | 0.33 | 0.33 | 68 | 1008.6 |
| 20260507171548 | 23 | 228 | 0.0 | 3.2 | 0.00 | 0.33 | 0.33 | 67 | 1008.6 |
| 20260507171046 | 23 | 276 | 1.6 | 4.8 | 0.00 | 0.33 | 0.33 | 69 | 1008.7 |
| 20260507170542 | 22 | 97 | 0.0 | 0.0 | 0.00 | 0.33 | 0.33 | 72 | 1009.0 |
| 20260507170039 | 22 | 302 | 3.2 | 6.4 | 0.00 | 0.33 | 0.33 | 69 | 1008.9 |
| 20260507165535 | 22 | 27 | 3.2 | 3.2 | 0.00 | 0.33 | 0.33 | 76 | 1009.1 |